Theta_e
346 345 345 344 345 344 344 342 341 341 341 342 339 337 337 341 340 340 341 343 346 347 347 348 348 349 350 352 352 352 352 353 354 354 353 353 352 351 351 351 351 350 350 350 351 351 350 349 349 349 349 349 350 349 349 350 347 346 344 342 340 337 337 333 331 335 336 335 338 340 343 346 347 342 344 347 349 350 351 349 350 350 351 351 351
345 345 345 344 343 344 344 343 342 341 341 341 341 339 337 338 340 340 339 341 343 345 347 348 348 348 349 349 351 352 352 352 353 354 353 353 353 354 353 351 351 350 348 349 350 352 350 348 349 349 347 348 349 350 349 349 348 346 344 346 343 343 339 338 335 332 337 336 338 340 342 345 345 342 344 349 350 350 350 351 353 352 352 353 352
345 346 346 344 343 344 344 343 343 341 340 340 340 341 340 338 339 339 339 340 342 343 345 346 347 348 348 348 349 350 351 351 352 353 353 353 352 353 354 352 351 351 350 350 350 350 349 350 350 349 349 347 348 349 348 347 348 348 348 347 345 345 343 341 338 335 336 339 338 339 339 342 345 348 346 347 349 349 348 351 352 354 355 354 354
346 346 346 346 345 344 343 344 343 342 341 340 340 341 342 341 341 339 338 338 339 342 342 343 345 345 346 347 348 349 349 350 351 352 353 353 353 352 353 352 352 352 352 352 351 350 350 349 350 350 347 346 347 347 347 347 347 346 346 346 346 347 346 345 342 341 338 340 339 342 342 340 344 345 347 349 349 350 351 352 351 353 355 356 357
346 347 347 346 346 345 344 344 343 343 342 341 341 341 341 341 342 342 340 338 337 339 342 341 340 341 343 344 346 348 349 350 350 351 353 354 353 353 353 352 352 352 352 352 356 351 350 350 351 349 347 348 349 348 348 346 348 347 347 346 346 347 347 347 346 344 342 342 342 340 340 341 343 345 344 348 348 348 347 349 351 352 354 356 358
346 347 347 347 346 346 345 344 344 343 343 343 342 342 341 341 340 342 343 341 339 338 339 341 342 340 340 340 342 344 348 349 350 351 352 353 353 353 353 353 353 352 352 351 351 351 351 351 351 350 349 349 350 350 348 348 347 347 346 347 346 344 344 345 344 345 344 344 343 344 340 345 342 342 342 344 346 348 350 348 347 351 350 353 355
347 347 348 347 347 347 346 346 345 345 345 344 344 343 342 342 341 340 342 343 341 340 339 339 342 342 341 341 340 341 343 347 349 350 351 351 352 352 353 353 353 353 352 352 352 352 352 352 351 351 350 350 350 350 349 347 348 348 348 347 346 344 345 345 345 344 344 344 344 344 344 342 343 344 342 343 344 347 349 350 348 345 345 346 353
347 347 348 348 348 348 348 347 347 347 347 346 345 344 344 343 342 342 341 341 342 342 341 340 340 342 343 343 343 343 342 344 347 349 350 351 351 351 352 353 353 353 353 353 353 353 353 353 354 353 352 352 351 351 350 349 348 347 349 348 347 345 345 344 342 343 342 342 342 343 339 339 339 342 342 342 345 343 345 347 347 348 348 345 347
348 348 348 348 348 349 349 349 349 349 349 347 347 346 345 344 344 343 342 341 342 343 343 343 341 341 342 343 344 345 344 344 346 348 349 350 351 350 351 352 352 352 352 352 352 352 352 353 354 354 356 361 359 357 356 355 350 348 348 347 346 346 345 344 344 341 341 341 342 342 340 342 342 342 342 339 341 344 342 342 345 348 347 346 348
348 348 348 348 350 350 350 351 350 349 349 348 348 348 347 346 345 344 343 342 342 343 343 343 343 342 341 341 343 345 346 346 345 338 342 350 350 351 351 351 352 352 351 351 351 352 352 352 354 361 362 359 354 350 346 348 355 354 350 348 347 346 345 344 343 343 342 341 342 342 341 341 342 341 341 341 343 343 345 344 343 346 343 345 343
349 349 349 350 350 351 351 351 351 350 350 350 349 349 348 348 347 346 345 344 343 342 343 342 343 343 343 342 341 343 346 347 338 332 333 338 349 350 350 350 351 351 351 351 350 351 352 352 352 356 361 365 358 348 345 343 343 344 347 355 357 350 346 345 344 344 342 343 343 341 341 342 343 342 343 346 344 346 347 343 343 340 339 338 340
350 350 350 351 351 351 352 352 351 351 351 350 350 350 350 349 349 348 347 346 346 345 343 343 343 343 344 343 342 342 343 339 332 330 331 331 339 351 350 350 350 350 351 351 351 351 351 351 352 353 353 353 354 355 352 346 341 341 341 342 344 348 351 351 348 345 342 343 343 343 342 343 344 340 344 341 346 343 345 344 343 344 342 338 335
350 351 351 352 352 352 352 352 352 352 351 351 351 351 350 349 349 349 348 349 348 347 345 344 344 344 344 343 343 344 344 336 330 329 329 329 330 342 350 350 349 350 350 351 351 351 351 351 351 352 353 361 361 356 354 354 346 339 338 340 341 340 336 336 341 350 349 344 344 344 344 344 343 345 346 342 341 343 339 338 337 337 339 338 339
351 351 352 352 352 352 353 352 352 352 352 352 352 351 350 349 350 350 350 350 349 348 348 346 346 345 344 344 344 345 344 337 328 327 327 327 328 334 348 349 349 349 350 351 351 351 351 350 350 350 351 352 353 353 353 353 353 352 349 347 346 349 344 337 335 337 343 348 347 346 348 346 347 347 349 345 344 344 340 340 336 336 338 340 342
350 351 352 352 353 353 353 352 352 352 352 352 351 351 350 350 350 350 350 349 349 348 348 348 347 347 346 346 345 345 346 334 326 324 324 324 326 331 345 349 349 349 349 350 351 352 351 352 351 350 350 350 351 352 351 351 351 351 350 350 350 350 349 349 347 346 345 345 347 349 350 350 350 351 349 347 348 347 345 343 342 342 342 342 344
346 350 351 353 353 354 353 353 353 353 352 352 351 351 350 350 349 350 350 350 350 350 350 350 348 348 348 347 346 345 347 331 325 323 322 322 325 336 342 346 348 349 349 349 350 351 352 352 351 351 351 351 353 344 350 352 349 348 348 348 348 349 349 352 341 343 350 348 348 349 351 353 346 352 351 348 346 343 345 345 342 339 339 340 343
345 348 351 352 354 354 355 354 353 353 353 352 351 351 350 350 350 351 349 349 349 348 349 349 349 349 348 347 346 346 346 335 323 320 320 320 324 339 342 345 347 348 349 349 350 350 351 351 351 351 351 350 346 335 334 350 349 348 347 347 348 348 348 350 339 331 330 330 330 333 333 333 333 331 329 331 341 340 340 339 342 342 339 340 342
346 347 348 350 352 354 355 355 354 354 353 352 352 352 352 352 351 352 350 349 348 349 349 349 349 350 348 348 347 346 346 339 323 318 318 318 327 340 343 344 346 347 349 350 350 350 351 359 359 351 350 350 338 332 331 341 346 347 347 346 345 345 346 349 349 348 331 325 325 326 328 329 331 331 331 330 328 340 343 342 345 340 342 341 341
347 347 348 349 350 351 353 354 355 354 354 353 353 353 352 352 352 352 351 350 350 350 350 349 349 349 349 349 346 346 347 341 323 319 317 316 326 341 344 344 345 346 348 349 350 351 349 355 359 353 352 346 334 330 328 336 344 345 345 345 343 343 345 346 345 346 345 345 346 343 342 342 342 341 342 335 333 339 343 346 348 345 344 343 342
346 349 349 349 350 350 351 352 353 353 354 354 354 354 354 353 352 352 351 351 350 350 350 349 348 348 350 350 349 348 347 348 340 318 316 314 319 341 345 344 344 345 347 348 348 349 350 349 348 334 330 331 329 326 324 324 342 345 345 343 343 343 346 344 344 345 346 349 350 351 350 351 350 348 347 347 346 344 342 344 347 347 346 345 344
339 342 346 349 349 349 350 350 351 352 354 354 355 355 355 353 353 352 351 351 350 350 349 349 348 348 349 350 350 349 349 348 345 320 315 314 315 326 344 345 346 346 346 346 347 347 348 349 349 338 326 324 323 322 320 319 326 343 345 344 345 346 346 342 345 358 349 347 348 350 352 351 352 351 350 350 349 348 346 343 346 348 347 346 344
336 338 340 345 350 351 349 350 351 351 352 354 354 354 355 355 354 353 352 351 350 349 349 348 348 348 349 349 349 349 348 341 349 325 317 313 313 316 340 346 347 347 346 346 347 347 348 349 349 341 327 323 321 319 317 318 320 334 342 329 330 331 342 346 345 344 347 349 348 348 348 349 350 350 350 350 350 350 349 347 345 347 348 349 348
333 334 336 341 347 351 352 349 349 351 351 352 353 353 354 354 354 353 352 351 349 349 348 348 347 347 347 348 349 350 350 348 334 341 319 314 312 312 322 337 333 348 348 347 347 348 349 350 351 345 327 320 317 316 316 317 321 329 323 323 324 326 337 341 344 345 344 346 346 347 347 348 348 349 350 351 352 351 350 350 349 347 347 349 350
330 331 333 338 344 349 352 352 350 350 351 351 352 352 353 354 354 353 352 351 349 348 348 348 347 346 346 346 348 350 350 350 337 329 331 314 313 311 314 320 328 343 349 349 349 350 350 350 347 331 323 316 314 315 316 318 329 320 317 319 321 329 337 340 341 344 345 344 345 346 347 348 349 349 350 352 353 353 352 352 351 350 349 348 348
328 329 332 336 342 346 350 352 351 350 350 351 351 352 352 353 352 353 352 351 350 348 348 348 347 346 346 346 347 348 350 350 350 336 325 320 314 312 313 315 318 323 343 349 350 351 339 331 328 324 322 317 315 315 316 316 314 317 318 320 334 335 337 339 341 342 343 345 346 348 349 349 350 352 353 352 348 345 342 343 344 342 342 343 342
327 329 332 336 339 343 346 349 351 350 350 350 351 353 353 353 353 352 352 351 350 349 348 348 347 346 346 346 346 348 349 349 350 348 333 327 320 314 314 314 318 319 329 344 338 335 331 326 323 322 323 325 330 332 334 335 321 318 319 326 330 334 336 337 339 340 342 344 345 346 348 350 350 351 348 346 344 346 342 340 339 338 337 337 335
327 330 331 333 338 342 345 347 349 349 349 350 351 353 354 354 353 352 352 351 351 350 349 347 347 346 346 346 347 347 348 349 349 349 344 339 336 329 320 321 317 318 324 333 337 339 338 336 336 329 330 329 331 332 333 337 337 332 329 331 333 334 336 338 340 341 342 344 344 346 348 350 346 344 346 346 347 347 344 342 340 338 336 333 333
326 328 330 333 338 343 344 347 348 348 348 349 350 351 353 354 353 352 352 352 351 350 349 348 347 347 346 346 346 346 347 348 349 349 348 343 340 336 331 330 329 327 328 331 335 340 343 339 333 337 337 337 336 337 339 341 342 341 339 337 336 337 339 343 345 342 344 346 346 347 347 346 346 348 347 346 347 347 344 341 340 337 335 334 332
325 326 329 334 340 342 342 344 347 347 348 349 351 352 353 353 354 354 355 355 354 352 351 350 350 350 349 348 346 345 346 346 349 335 348 332 339 340 334 332 333 332 329 325 337 337 336 339 340 340 340 340 341 341 342 342 341 341 342 340 338 338 337 338 339 341 343 343 344 345 346 346 346 347 344 344 345 345 342 340 339 337 335 335 333
323 326 330 335 339 341 342 343 346 347 348 348 350 351 346 334 344 355 354 342 336 333 332 350 353 352 350 350 350 348 347 349 333 325 322 320 319 322 323 321 320 330 326 318 330 335 336 337 339 340 341 342 342 342 343 343 343 341 341 335 338 338 337 338 339 341 342 342 344 343 344 346 346 346 344 344 345 343 339 336 337 335 334 334 333
324 325 328 332 336 339 340 341 344 347 348 350 351 350 350 346 313 305 313 328 328 319 316 321 326 333 348 350 345 332 331 329 322 317 316 314 313 314 314 313 313 314 315 324 331 334 335 336 338 339 340 342 342 343 343 343 342 343 342 340 338 338 336 338 339 340 339 341 341 343 344 344 345 345 345 343 343 340 337 335 336 334 335 335 334
322 324 326 328 332 337 340 340 341 344 348 350 351 351 350 349 338 314 302 313 325 314 314 313 316 317 322 333 344 348 327 317 315 313 314 312 310 311 311 311 310 310 309 317 334 333 335 337 338 340 341 341 342 343 344 344 344 344 344 341 339 339 338 339 340 341 341 341 341 340 342 343 344 344 343 342 339 339 337 334 334 335 334 335 334
321 323 325 328 331 336 340 339 339 341 346 350 351 352 351 350 347 340 331 306 305 314 315 315 313 313 314 316 319 324 325 320 312 311 310 310 309 309 309 308 309 306 309 326 336 336 335 336 338 340 341 341 343 344 344 345 346 345 346 345 344 342 341 342 340 343 342 343 342 342 342 342 342 341 339 339 338 340 337 335 334 334 333 332 334
322 324 327 331 335 338 340 338 338 341 341 341 345 351 352 352 350 344 340 339 336 323 311 309 312 313 309 309 312 312 314 314 311 310 308 309 308 308 308 313 304 302 316 335 335 337 338 337 338 339 341 342 343 343 343 344 342 341 342 343 346 346 346 345 343 341 341 341 341 341 341 342 341 342 341 340 339 339 337 335 334 332 331 331 330
322 327 333 336 335 337 340 340 339 340 341 341 341 342 344 348 347 345 345 343 342 343 345 343 319 309 327 318 309 306 307 310 308 308 308 307 307 304 307 322 323 320 319 328 334 337 338 338 338 339 340 341 342 340 337 337 337 339 340 341 343 345 346 344 344 344 343 343 342 341 341 340 342 340 341 339 337 337 337 335 334 333 332 330 329
321 323 325 328 329 329 332 337 338 338 338 339 341 344 343 343 345 346 343 345 346 346 345 350 342 316 303 305 308 306 306 307 307 305 307 306 303 309 332 333 334 330 328 328 332 335 338 339 340 340 341 341 340 337 338 338 339 341 343 344 342 345 345 345 342 344 343 344 343 341 338 341 341 339 339 339 338 337 337 335 334 333 333 331 329
320 322 324 324 325 325 329 335 338 336 335 335 337 340 343 343 343 344 344 344 345 345 344 337 330 330 323 322 311 304 305 307 307 305 303 301 302 324 341 339 337 336 331 331 331 333 336 338 339 340 339 338 339 339 340 341 342 342 338 343 343 343 344 344 344 342 342 342 343 342 341 342 341 340 339 338 336 335 336 334 332 331 330 328 326
320 322 322 322 323 324 328 334 338 335 335 336 337 339 341 341 343 343 342 342 342 342 341 337 332 336 337 335 326 323 310 301 302 302 300 300 308 326 336 340 340 338 336 334 333 333 335 337 339 339 338 340 340 341 342 342 342 342 342 342 341 342 337 340 338 341 341 341 341 341 339 340 340 339 336 338 335 333 332 331 332 331 328 327 326
319 319 319 319 321 323 326 334 338 338 336 336 335 336 337 338 339 340 341 341 340 340 341 341 340 338 339 333 325 323 324 330 333 332 324 323 324 328 331 334 337 337 335 335 335 335 336 338 338 339 341 342 341 342 342 341 341 341 342 343 342 341 338 338 337 338 338 339 340 338 338 338 337 335 335 335 332 330 330 330 329 330 329 327 325
318 318 320 318 321 322 327 331 336 339 338 337 336 336 335 337 337 337 338 339 339 339 339 339 338 340 336 330 327 328 336 338 337 335 332 330 330 329 330 330 328 330 333 335 336 337 337 334 331 331 330 333 335 333 336 339 340 340 341 341 340 336 335 336 336 335 336 336 336 334 332 333 331 330 329 332 330 328 328 326 325 325 325 324 323
316 318 321 319 318 320 323 324 324 326 333 338 338 337 337 336 337 338 338 337 337 337 337 338 337 330 330 324 316 320 338 337 334 330 327 322 318 316 315 316 319 320 321 321 321 321 321 318 316 317 317 317 320 322 326 329 331 331 331 330 329 328 328 328 328 329 330 329 329 328 328 330 328 328 326 325 323 325 324 322 321 321 321 320 320
315 316 317 318 317 319 319 319 320 322 324 327 332 336 338 338 338 339 338 337 336 335 330 322 320 319 312 311 309 310 327 325 321 316 314 312 310 309 309 308 308 309 309 309 311 311 310 309 309 309 308 309 312 316 321 325 327 328 328 328 328 328 328 328 328 328 329 329 328 328 328 328 326 325 324 321 324 324 324 323 321 319 319 318 317
316 316 315 317 316 316 316 317 317 317 318 320 321 324 327 331 334 336 336 335 334 331 327 323 317 317 313 307 309 309 316 315 313 310 308 306 305 305 304 304 304 304 305 306 306 307 306 304 304 304 304 304 305 307 309 312 318 323 323 322 321 321 322 322 324 326 327 326 326 325 326 325 324 325 324 323 322 322 322 322 321 320 318 318 317
313 314 314 314 314 314 314 314 314 315 315 316 317 318 319 320 321 324 325 324 323 323 321 317 315 313 312 309 307 308 307 306 305 304 304 304 303 302 302 303 303 303 303 303 304 304 304 303 302 302 302 302 302 303 303 305 307 312 317 317 316 317 318 319 321 324 326 326 326 325 323 322 321 322 321 321 321 319 318 318 318 318 317 316 315
311 311 311 311 311 310 310 312 312 312 314 313 311 311 313 312 312 313 315 314 314 315 314 314 314 313 311 309 307 306 305 304 304 303 301 301 300 300 300 300 300 299 300 300 301 301 301 301 300 300 299 299 300 300 301 302 303 304 307 311 313 313 314 315 317 321 325 323 321 321 321 321 320 320 319 318 318 317 316 316 316 316 312 311 309
309 309 309 308 309 309 308 308 310 309 310 309 308 308 308 308 308 309 309 309 309 309 308 308 308 307 306 305 305 305 303 302 301 301 301 300 299 299 299 299 298 298 298 298 299 299 300 299 299 298 297 297 297 298 298 299 300 301 303 304 306 308 311 314 318 320 321 322 321 320 319 318 318 318 319 317 316 314 313 312 312 311 310 309 308
307 307 306 306 306 306 306 306 306 306 306 307 307 307 307 306 306 306 307 307 307 306 305 305 304 304 303 303 302 302 302 301 300 300 299 299 298 297 297 297 298 297 298 298 298 298 298 298 298 298 298 297 296 296 297 297 297 298 300 300 300 302 305 309 312 314 315 317 317 316 315 314 314 314 314 314 313 312 312 312 311 310 310 309 309
305 305 305 305 304 304 304 304 304 305 303 304 305 305 305 305 305 305 304 304 303 303 302 302 301 301 301 300 300 299 299 298 298 298 297 297 297 296 296 296 296 296 296 296 296 297 297 297 296 295 295 295 295 295 295 295 295 296 297 297 297 297 298 301 305 307 309 311 312 312 312 311 310 310 310 310 310 310 309 309 309 309 309 309 309
304 304 304 303 303 303 302 302 303 301 301 302 302 302 302 301 302 302 303 302 301 300 299 299 299 299 298 298 298 297 297 297 296 295 295 295 295 294 294 295 295 294 293 293 293 293 294 295 296 295 294 294 293 294 294 294 294 294 295 295 295 295 294 296 299 302 301 307 307 308 308 308 308 308 309 309 308 308 308 307 307 307 307 308 308
303 303 303 303 302 302 302 302 301 301 301 300 300 300 301 300 299 299 299 299 299 299 298 298 298 297 297 296 297 296 296 295 295 294 294 294 293 292 292 292 291 291 291 291 291 292 292 293 293 293 294 294 293 293 293 292 292 292 293 293 293 291 293 294 295 297 301 303 303 303 303 302 302 302 302 303 304 304 304 304 305 305 304 303 304
303 302 302 301 301 302 301 300 299 300 299 299 299 298 299 298 298 299 299 297 297 297 298 297 298 297 296 296 297 296 295 294 294 294 294 293 293 292 292 291 291 290 290 290 290 290 290 291 292 292 293 294 293 293 293 293 292 291 291 292 290 290 291 294 296 294 297 299 301 301 301 301 301 300 300 300 301 302 304 303 302 302 302 302 303
Wind_Speed
16 15 13 14 13 14 13 12 12 10 9 8 9 10 9 9 10 10 7 8 8 8 8 8 8 9 8 8 8 7 7 7 6 5 5 6 6 5 4 4 5 5 4 4 3 3 4 4 5 5 3 4 4 3 3 4 3 3 2 2 3 3 4 3 3 6 4 3 3 4 3 2 4 1 3 5 6 6 4 4 4 4 5 6 6
15 14 13 13 15 14 14 12 12 11 11 10 9 9 9 9 9 7 8 9 8 9 9 8 8 8 8 8 8 8 7 7 7 6 6 7 6 4 5 5 5 5 4 5 5 4 3 4 5 5 3 4 4 4 3 3 3 3 3 4 5 5 3 3 4 3 6 3 3 3 4 1 3 1 3 5 6 4 6 6 6 4 5 6 6
15 14 13 13 14 13 13 12 12 13 13 11 11 10 9 8 7 8 9 8 7 9 9 9 8 8 8 7 7 7 7 7 6 6 7 8 8 7 6 5 6 6 6 7 6 4 4 5 6 4 3 3 4 4 3 3 3 4 4 3 4 4 4 4 3 4 6 6 3 3 3 1 4 5 3 4 5 4 5 6 6 6 5 5 5
15 14 14 14 14 13 13 12 13 13 14 13 13 11 10 8 6 7 8 7 8 8 8 9 8 8 8 8 7 7 7 7 6 7 8 8 8 8 7 6 6 6 7 6 5 5 6 5 6 5 3 4 4 4 4 3 4 4 4 3 3 5 3 3 4 4 3 6 3 3 3 3 4 4 4 4 5 6 4 5 4 5 6 6 5
15 15 15 15 14 14 14 13 14 14 15 13 14 13 12 10 8 8 8 8 7 7 7 6 7 7 8 9 8 8 8 8 8 8 8 8 8 8 7 6 6 7 7 6 5 5 5 6 7 4 4 5 6 5 4 4 5 4 5 4 5 4 3 3 5 4 5 7 6 3 2 3 3 4 3 5 5 4 3 4 4 5 6 6 5
15 15 14 15 14 15 15 14 15 15 15 14 15 14 13 12 10 9 9 10 8 8 8 8 8 9 9 9 9 9 8 8 9 9 9 8 7 7 6 6 6 6 6 6 5 5 6 7 7 5 4 6 7 6 5 5 4 5 5 5 4 3 3 4 3 4 4 7 6 7 2 4 4 4 3 2 5 6 7 4 3 4 3 6 6
15 15 15 15 14 15 15 15 14 14 14 14 13 13 14 14 13 12 10 11 10 10 9 9 9 9 9 9 9 9 8 8 8 9 9 8 8 8 7 7 7 6 6 7 6 6 6 7 7 6 6 7 7 7 6 5 5 6 6 6 4 3 5 5 4 4 5 5 5 5 6 4 3 6 2 0 2 3 6 9 5 1 1 2 6
15 15 15 15 15 16 15 15 14 14 13 13 13 13 13 13 13 13 11 11 11 11 11 11 10 9 10 9 9 8 8 7 7 8 8 8 8 8 8 8 8 7 7 7 6 7 7 7 7 7 7 7 8 8 6 7 5 5 6 4 4 4 5 5 4 5 5 5 6 7 4 4 4 3 2 3 4 2 2 3 8 8 6 2 3
15 15 15 15 16 15 14 13 13 13 13 13 13 13 13 12 12 11 11 11 10 11 11 11 10 10 9 10 9 9 9 9 8 8 8 9 8 9 9 9 9 8 7 7 7 7 6 7 7 8 8 11 12 11 9 8 6 7 6 4 5 5 5 5 6 5 6 5 7 5 5 6 6 5 6 4 5 7 2 1 5 6 5 5 5
14 15 15 16 15 14 14 12 12 12 12 13 13 13 12 12 11 11 11 12 11 11 10 11 11 11 10 10 9 9 9 8 10 15 13 9 9 9 8 8 8 8 8 7 7 7 8 7 8 13 14 14 13 13 14 13 12 9 8 5 6 5 6 6 6 6 6 6 7 7 7 8 8 5 4 4 4 3 4 4 5 7 5 5 3
14 15 16 15 14 13 12 13 12 13 13 13 12 12 13 12 11 11 11 11 11 11 10 11 11 11 11 11 11 10 9 9 14 15 16 16 11 9 9 9 8 8 8 8 9 8 8 7 7 10 11 11 12 14 14 14 14 14 14 11 9 8 6 7 7 6 6 7 6 5 6 9 9 4 5 6 3 4 5 3 5 3 4 5 9
16 16 16 14 13 13 13 13 13 14 13 14 14 13 12 12 12 12 11 11 11 9 11 11 11 11 10 11 11 11 10 12 15 15 16 17 15 11 9 8 8 8 8 9 8 8 8 8 7 6 7 8 8 8 10 13 14 14 15 14 13 13 11 9 8 6 5 6 7 8 6 8 8 3 5 3 6 3 5 4 4 4 5 5 4
14 14 14 13 13 13 12 13 13 13 13 13 13 12 12 13 13 12 13 12 9 10 12 11 11 11 11 11 11 11 10 13 15 16 16 17 17 14 9 8 9 8 8 9 9 8 8 7 7 7 7 12 10 8 7 8 10 13 14 14 13 13 13 14 12 10 6 6 8 9 8 6 7 7 5 4 2 3 2 3 3 3 5 6 6
11 13 12 13 13 13 13 13 14 14 13 12 12 12 13 14 14 13 11 10 11 12 11 12 11 11 12 12 11 10 11 13 16 17 17 17 17 15 10 10 9 9 9 9 9 9 9 8 8 8 8 7 7 7 6 7 7 6 6 6 7 10 12 14 16 16 12 9 8 11 10 5 10 8 5 4 3 5 4 6 3 4 6 7 6
5 6 10 11 12 12 13 14 14 14 14 13 13 13 14 13 12 12 11 12 12 12 12 12 11 11 12 12 11 11 11 15 15 17 17 18 18 15 11 10 9 9 10 9 10 10 10 9 9 10 9 8 8 8 7 7 6 6 6 7 7 7 7 7 8 8 8 9 10 12 13 8 9 10 5 5 6 6 5 6 5 5 5 4 5
11 9 9 10 12 12 13 13 13 13 13 13 14 14 14 14 14 12 11 11 11 10 10 11 12 13 12 12 12 13 12 16 16 17 18 18 17 11 10 11 11 10 10 10 10 10 10 10 9 10 10 9 11 14 12 8 6 7 8 8 8 7 8 10 11 9 9 9 9 11 11 11 11 8 6 6 6 4 3 2 1 2 3 5 7
5 7 9 11 12 12 12 13 13 13 13 13 14 14 14 13 12 10 11 12 12 12 12 12 11 12 12 12 13 13 12 14 17 18 18 18 13 9 9 9 10 11 11 11 10 10 10 9 9 10 10 10 12 13 14 11 7 8 8 9 8 7 10 8 8 13 15 15 15 15 15 16 14 12 11 11 7 3 2 2 6 4 5 6 6
5 5 6 8 10 12 12 13 13 13 12 14 15 13 12 10 11 11 12 12 13 13 12 12 12 12 13 14 14 14 13 14 17 18 19 18 16 11 9 9 10 11 11 11 9 9 10 15 13 11 11 12 14 14 14 10 8 9 9 9 9 9 11 9 5 6 10 12 13 15 15 15 14 14 14 13 10 6 6 8 6 4 6 6 7
4 5 6 6 6 8 9 11 12 12 13 13 12 13 13 13 11 11 12 12 12 11 11 11 11 11 13 14 16 16 14 14 17 18 19 19 16 10 10 9 10 10 10 11 10 9 8 11 16 15 13 14 17 15 14 11 9 10 9 8 9 11 12 9 5 6 5 4 6 6 8 11 10 9 10 14 11 10 8 9 6 6 8 7 7
11 10 7 5 7 8 9 10 11 12 13 13 12 12 11 11 12 12 12 12 12 11 11 11 13 12 12 13 13 14 14 13 13 19 19 19 21 13 9 9 11 12 10 10 9 9 9 8 11 15 18 18 18 17 15 15 11 10 8 8 10 13 11 6 6 7 7 7 8 7 8 8 6 6 6 6 7 9 10 9 8 7 8 8 7
10 10 9 10 8 8 9 11 12 12 12 12 12 11 11 13 13 13 13 12 12 12 13 12 13 13 12 12 12 13 13 14 13 18 19 20 22 18 10 12 12 11 10 10 10 10 9 9 8 13 17 18 19 19 16 14 14 11 9 9 12 14 8 5 7 9 7 7 7 7 7 7 6 6 6 6 6 7 7 8 8 8 8 7 8
9 10 11 10 10 9 9 11 12 11 11 10 10 11 11 12 11 13 11 11 13 14 13 12 12 12 11 11 12 12 13 17 13 16 20 20 21 23 13 13 13 11 11 10 10 9 10 9 9 13 17 18 19 17 17 16 15 10 12 16 16 14 10 7 6 5 6 6 6 7 7 7 7 7 7 7 7 7 7 7 8 8 8 8 9
8 9 10 11 10 10 9 10 11 9 10 12 12 13 11 11 12 12 12 12 13 14 13 12 12 11 10 10 10 11 11 12 19 14 18 21 21 22 23 17 18 14 12 12 12 11 9 10 11 14 16 17 16 17 16 18 12 11 18 17 15 14 8 5 5 5 6 6 6 7 8 7 8 8 7 7 8 7 7 7 7 8 8 8 8
7 8 8 9 9 10 10 10 10 11 12 12 13 14 12 12 12 11 12 12 12 13 12 11 11 11 12 11 10 10 10 11 13 19 16 20 20 23 23 23 19 14 13 12 12 10 9 10 11 15 16 16 16 16 16 15 12 17 16 15 13 10 6 6 6 7 6 6 7 8 9 8 7 7 8 8 8 7 7 6 5 5 5 6 6
8 8 8 8 8 9 9 9 10 11 12 12 12 12 13 12 12 11 11 12 12 12 12 11 12 12 11 12 11 10 10 10 10 14 19 18 21 22 23 24 22 20 14 13 11 11 12 15 15 14 14 15 16 13 10 11 16 16 16 16 13 6 6 6 7 6 7 8 9 9 9 9 9 9 8 6 3 0 1 2 2 1 1 1 1
7 7 9 8 8 9 10 10 10 11 13 12 12 12 13 13 13 12 12 12 13 13 12 12 12 12 12 12 11 10 9 9 11 10 11 15 16 21 23 23 23 22 20 16 19 19 18 15 13 11 10 8 7 6 8 10 14 17 16 12 6 7 7 8 7 7 9 9 9 9 9 8 7 6 3 2 3 6 5 3 4 3 2 3 3
6 6 7 9 9 9 10 9 8 9 12 12 12 11 12 12 12 12 12 13 13 13 12 11 11 11 12 11 10 9 9 10 11 10 9 10 10 11 13 13 15 13 11 12 12 10 10 8 6 8 7 10 12 11 11 11 9 8 8 8 8 8 8 8 9 9 9 8 8 8 8 7 2 1 5 5 6 6 5 5 4 5 5 4 4
7 7 9 9 9 9 10 13 11 9 10 11 12 12 12 13 13 13 13 14 14 13 11 11 12 12 12 11 10 10 11 11 11 12 10 10 10 9 10 10 10 11 12 12 12 12 10 5 4 3 5 4 6 5 7 7 8 7 7 8 8 8 9 8 6 6 7 7 7 6 6 5 5 6 3 4 6 6 5 6 6 5 5 4 3
9 9 8 8 9 8 9 10 9 8 9 10 12 12 13 13 14 14 16 14 14 14 13 13 14 14 13 12 12 12 12 13 13 12 12 14 14 12 10 11 10 10 15 16 11 6 4 6 6 6 6 8 7 7 7 7 7 8 8 7 7 7 7 7 8 9 9 7 8 8 8 6 8 7 6 6 7 6 4 5 5 5 4 5 7
9 9 8 9 10 9 7 8 10 9 9 9 10 10 14 18 17 15 14 18 21 21 18 15 15 13 13 12 12 14 14 16 16 18 19 20 20 21 20 19 18 15 16 17 10 7 8 9 9 9 10 9 10 9 9 9 8 8 8 8 7 7 8 8 8 9 7 8 8 7 8 7 7 7 7 8 7 6 6 7 5 5 6 7 7
8 8 8 8 10 10 9 8 8 8 9 9 9 10 8 5 8 9 6 4 11 18 18 20 17 14 12 10 12 18 18 14 14 18 18 18 20 20 19 19 18 19 13 10 6 9 9 9 10 10 10 10 10 10 9 9 9 9 9 9 8 9 9 8 9 8 7 7 8 8 7 6 7 6 6 7 7 5 4 4 5 6 7 8 9
8 8 8 9 11 10 8 9 8 7 7 8 8 8 7 7 2 8 7 2 3 13 16 14 12 14 16 16 12 10 15 15 16 17 18 18 18 19 19 19 19 17 16 17 9 9 9 10 10 10 10 10 11 11 9 9 9 10 9 8 9 9 9 9 10 8 8 7 7 7 7 7 7 7 6 6 5 5 5 5 6 7 7 7 8
9 8 8 9 10 12 10 9 8 7 5 5 7 7 8 8 9 6 1 3 8 16 18 18 19 19 20 20 21 19 15 14 16 17 18 19 19 19 19 19 18 15 13 8 10 10 9 10 10 10 10 11 11 10 9 8 9 10 9 10 9 9 9 10 8 7 8 9 8 7 7 7 7 6 6 5 6 7 6 7 7 7 7 7 7
10 8 8 9 10 10 10 9 8 7 5 2 3 5 8 9 10 10 9 4 1 3 6 16 21 19 15 16 18 18 13 15 17 17 17 17 18 18 17 9 6 13 16 13 11 12 10 10 11 11 11 11 9 8 7 3 4 5 5 6 7 5 8 6 6 8 7 7 7 8 7 7 6 6 6 6 6 6 6 6 6 6 7 8 8
9 11 16 13 9 10 9 8 8 7 5 3 3 2 5 7 9 11 11 10 9 10 10 9 5 12 15 12 11 10 11 10 14 16 16 17 15 12 13 8 5 1 4 7 8 10 10 11 11 11 11 11 8 3 9 7 4 10 8 7 8 11 9 6 7 8 8 7 7 7 7 7 7 7 6 6 6 6 7 6 7 8 8 8 7
10 8 8 10 10 9 10 9 7 6 5 3 4 5 6 7 8 10 10 10 11 11 9 9 4 0 3 4 4 9 12 14 14 16 17 15 16 19 9 8 8 8 9 10 11 11 11 11 11 11 11 8 7 9 10 12 12 8 6 8 10 11 9 7 7 7 8 8 8 8 7 6 6 5 5 6 8 9 8 8 8 7 8 7 6
9 7 7 8 10 10 11 10 7 5 5 4 3 5 7 8 9 7 8 10 11 9 5 1 3 3 2 0 1 1 2 6 7 6 8 12 18 15 11 11 11 10 10 10 10 9 10 11 10 10 6 6 7 8 7 6 5 5 6 8 10 11 10 8 8 7 7 7 7 7 7 7 6 7 8 8 8 6 6 5 4 5 6 6 5
9 7 6 8 9 10 11 10 7 6 6 5 5 6 6 7 9 9 10 10 9 8 8 6 5 7 9 6 5 3 4 8 12 10 8 7 6 8 8 7 7 9 10 8 9 9 10 9 8 5 4 6 7 8 8 8 8 7 8 9 11 12 11 8 7 6 6 6 7 7 7 7 6 6 7 8 8 7 5 5 4 5 6 6 6
8 10 10 11 9 9 9 10 6 5 6 7 6 5 6 7 7 7 8 8 8 8 9 10 11 11 9 6 6 7 9 5 6 7 5 5 6 6 6 4 4 5 4 5 6 6 6 6 4 5 5 6 8 8 7 5 5 6 7 9 10 10 8 7 7 7 6 7 7 6 6 6 6 6 6 6 4 4 4 4 7 9 8 7 6
8 7 7 10 7 9 8 9 8 5 7 8 8 7 5 6 7 7 5 5 7 9 9 8 8 7 3 8 9 8 8 8 7 6 6 6 5 4 2 2 2 2 3 4 5 6 5 2 1 2 2 2 4 4 4 7 6 7 6 8 8 7 7 7 6 6 6 6 6 4 3 3 3 4 4 3 3 5 6 6 6 5 4 4 4
7 7 8 7 8 6 7 8 8 9 8 6 7 7 8 8 7 6 6 7 8 8 8 7 6 2 5 8 11 10 8 7 7 6 6 7 7 7 7 6 4 4 4 5 5 5 5 4 4 4 3 4 4 4 5 6 6 6 7 5 4 4 3 3 2 2 1 1 1 1 2 3 4 5 5 5 5 6 5 5 5 4 4 4 4
7 5 7 7 8 7 6 6 7 9 9 9 8 6 6 7 7 7 8 9 9 6 3 3 3 3 3 7 8 7 7 6 8 9 8 7 6 7 6 6 6 6 6 7 6 6 6 5 5 5 5 4 4 3 2 4 5 5 4 4 4 4 5 5 4 5 4 4 5 4 5 5 6 6 7 6 6 6 5 4 4 4 3 3 2
6 6 6 7 8 7 6 5 6 8 9 9 9 9 9 6 2 4 7 6 6 6 6 6 3 5 7 10 12 12 8 8 8 9 8 7 7 8 8 7 7 7 7 7 7 6 6 6 7 6 6 5 5 4 4 4 4 4 4 5 6 7 6 5 5 5 6 6 6 6 6 5 6 6 5 5 5 5 4 4 3 3 4 4 4
5 6 7 8 7 7 8 8 8 7 8 11 10 9 8 8 9 8 4 3 3 2 2 5 7 9 10 9 10 10 10 10 9 9 10 10 10 9 8 7 7 8 8 8 8 8 8 8 7 5 5 5 6 8 7 7 7 7 6 6 7 7 6 6 5 5 6 6 6 6 5 5 5 4 5 5 5 5 4 4 3 3 2 2 3
5 7 8 7 8 8 9 8 9 8 8 8 9 10 10 9 11 10 9 9 8 9 8 7 6 7 6 7 8 9 8 9 9 10 9 9 9 9 8 8 9 10 10 10 9 9 10 9 8 8 10 9 9 9 9 8 8 7 7 7 7 7 5 4 2 2 4 7 6 6 5 5 5 5 5 5 5 5 5 4 5 5 5 5 5
6 7 8 8 8 9 9 9 9 8 8 9 9 9 10 10 10 10 10 10 10 9 7 7 6 8 10 8 8 8 8 8 9 10 9 9 10 9 9 8 9 10 11 11 11 12 11 10 10 10 11 10 10 10 9 10 10 9 8 8 8 7 6 6 5 6 5 5 6 6 6 6 6 5 6 6 6 7 7 6 6 6 6 6 6
6 8 8 8 8 9 9 10 9 9 9 8 8 9 9 9 10 10 12 13 11 9 9 8 7 8 9 10 10 9 8 8 8 9 9 9 9 9 10 10 10 11 11 13 14 13 12 11 10 10 10 9 8 9 9 8 8 9 9 10 10 9 8 7 7 7 7 6 6 6 7 6 6 6 7 7 7 7 7 6 6 6 6 6 6
7 7 8 9 8 9 9 8 10 11 9 10 9 9 9 9 8 10 10 10 11 9 9 9 8 6 9 9 9 10 11 10 9 9 10 10 8 9 9 10 11 11 12 13 14 14 13 11 9 9 8 9 9 7 6 7 7 8 8 10 10 11 12 11 8 10 8 8 8 7 7 7 7 7 7 8 7 6 7 6 6 6 6 6 5
7 8 8 9 9 9 9 9 9 9 8 8 9 12 10 11 11 10 9 9 9 11 10 10 9 7 6 10 11 12 12 12 11 9 11 10 9 7 9 11 13 14 14 15 15 12 9 8 8 9 10 8 8 8 8 9 10 9 8 7 10 17 18 18 12 11 12 10 9 9 9 9 9 9 8 8 8 7 7 6 6 6 5 5 5
8 9 8 7 9 9 9 8 8 8 8 8 9 8 9 10 11 11 11 11 10 9 10 10 10 7 4 10 10 10 12 13 12 11 11 10 9 7 7 9 12 14 15 15 12 9 7 7 8 9 9 11 11 12 10 9 9 9 6 8 17 19 18 19 19 17 12 8 10 9 9 9 9 9 8 7 7 7 7 6 6 5 6 6 6
9 10 9 9 9 9 9 10 9 9 9 9 10 10 10 11 11 11 11 12 12 10 10 10 6 3 6 11 10 9 12 14 13 11 9 7 6 8 9 12 13 13 13 14 12 10 9 9 10 11 10 10 10 10 11 11 8 8 12 17 18 18 18 16 13 14 16 11 9 9 10 10 9 9 8 7 7 7 7 7 6 6 6 6 6
Wind_Direction
195 198 194 198 196 196 196 194 198 201 208 212 214 215 210 203 201 204 193 200 197 200 205 207 205 205 201 198 202 205 209 216 217 219 221 230 229 220 206 199 210 228 228 248 242 227 230 241 253 253 249 268 270 256 240 244 226 230 187 160 177 176 155 163 209 268 294 246 253 268 304 340 313 249 298 297 304 304 306 289 296 306 304 298 298
197 197 197 198 198 197 198 195 196 196 202 208 218 221 218 211 206 198 196 205 194 200 205 208 207 207 204 203 203 206 209 211 212 208 220 228 233 218 219 211 219 228 220 240 244 239 233 241 257 260 240 243 265 270 231 223 213 220 213 190 202 205 206 162 215 232 277 310 301 292 284 208 251 265 248 292 295 305 313 313 313 305 294 302 309
195 195 196 198 201 200 197 197 195 197 200 204 213 219 222 222 210 202 205 203 199 202 204 205 206 205 207 206 203 207 210 213 208 207 219 221 225 225 216 213 219 224 223 232 236 241 250 246 254 254 242 247 258 261 260 239 220 216 226 207 218 223 198 203 184 241 266 279 254 293 272 277 218 276 276 264 279 292 300 299 306 311 306 303 307
194 195 197 199 199 198 199 199 197 199 202 204 209 214 216 220 213 213 213 206 200 207 205 206 206 204 207 208 202 204 208 212 207 209 217 218 223 226 221 215 218 222 226 230 230 223 235 249 253 250 243 243 256 257 254 247 238 235 242 238 227 237 218 198 212 226 244 267 280 228 276 290 282 271 278 282 282 295 284 293 303 306 309 315 312
193 195 196 198 200 200 201 198 200 202 205 205 207 207 210 214 213 216 215 215 210 203 210 205 206 204 208 210 207 204 206 206 206 211 217 218 222 226 224 220 221 223 225 228 225 219 228 235 249 243 237 247 262 256 248 245 239 231 236 240 230 241 239 215 225 214 241 259 276 264 260 276 265 289 286 298 308 298 299 297 306 303 305 301 302
193 193 195 199 201 202 201 200 202 204 206 208 209 207 206 207 210 213 213 219 217 212 209 208 206 210 213 214 211 210 207 206 207 210 214 217 220 225 225 222 224 224 227 228 225 217 222 232 243 239 231 232 247 252 249 246 245 239 243 242 234 229 242 250 233 230 230 251 257 293 284 266 314 284 277 262 300 313 306 294 310 297 294 318 313
193 194 196 199 201 203 202 203 203 204 205 209 210 211 210 208 206 210 207 214 216 217 217 215 215 214 218 216 217 213 211 210 211 212 214 213 214 217 222 220 222 221 225 227 225 222 224 229 233 227 230 232 239 242 241 241 231 238 235 240 235 222 241 246 233 235 237 253 266 243 272 271 236 284 309 322 253 253 292 315 316 259 319 293 301
193 195 196 199 202 204 204 202 204 205 205 206 209 213 214 213 210 208 205 209 214 216 217 216 218 216 220 220 221 216 212 211 213 215 215 212 210 215 216 220 222 224 227 225 222 223 226 232 235 230 225 230 231 241 228 237 228 242 238 229 232 225 241 246 240 238 248 252 255 272 254 279 299 265 302 353 324 314 245 264 303 314 318 297 255
195 197 198 201 203 204 203 204 204 205 205 206 209 212 215 217 216 213 208 210 213 215 217 217 217 217 220 221 223 219 215 214 210 210 213 213 209 213 214 216 220 225 229 229 225 223 227 232 237 237 231 232 229 232 231 222 219 233 244 218 231 228 242 246 243 242 250 252 274 268 280 287 273 292 309 296 273 271 260 259 287 289 296 301 288
196 198 201 203 204 203 202 202 203 203 205 207 210 211 214 215 215 216 215 214 214 213 216 217 217 217 218 220 220 220 221 217 213 208 207 209 209 214 215 217 220 223 227 232 234 227 229 230 236 238 239 240 238 236 237 235 229 225 234 209 220 222 232 241 242 237 239 253 256 265 279 273 273 261 261 253 259 283 302 283 286 299 315 297 273
198 201 204 204 203 201 201 202 200 203 205 208 208 209 212 212 214 215 216 216 216 215 215 217 219 219 219 218 218 221 223 221 212 206 207 209 208 212 213 218 216 220 223 227 234 233 234 232 235 242 243 243 243 238 237 237 237 238 242 235 215 206 225 233 241 230 228 238 253 251 249 267 270 254 249 267 252 251 262 263 261 301 313 328 318
198 201 204 204 202 201 202 201 202 204 204 206 206 208 208 209 212 213 214 215 215 214 218 220 220 221 221 221 221 221 224 221 210 207 205 207 209 212 215 218 217 218 222 226 232 235 237 237 236 236 236 234 237 244 239 238 237 238 241 244 243 237 229 221 238 246 224 238 252 246 242 253 269 250 259 251 261 251 251 246 231 248 277 284 270
198 200 203 202 203 201 201 201 204 207 207 207 207 206 206 208 210 211 213 213 209 211 218 219 222 222 223 223 224 223 227 219 211 208 205 204 207 211 218 215 216 219 220 223 228 232 235 238 244 239 241 240 240 238 238 245 238 236 241 247 252 247 247 250 246 242 237 228 242 258 236 246 262 253 215 220 184 234 240 236 233 233 250 263 257
199 202 202 203 202 200 200 201 204 207 206 207 207 207 208 211 210 210 210 207 210 214 214 217 220 221 222 224 226 227 225 221 209 208 207 204 203 203 219 216 217 221 221 221 224 228 228 229 234 244 241 241 241 237 236 239 246 247 243 237 241 250 245 237 241 245 243 241 244 253 255 197 247 251 230 179 189 248 257 266 236 255 259 251 252
265 230 210 206 203 202 203 203 206 205 204 204 205 208 210 213 211 210 208 208 210 212 212 215 218 219 222 222 226 228 228 218 208 207 208 204 202 197 213 217 219 222 224 223 224 226 227 224 226 234 239 238 233 228 231 236 239 245 250 253 250 250 249 247 236 231 229 227 236 244 255 244 244 254 236 201 216 229 228 240 234 231 257 287 296
200 205 212 211 208 206 204 206 208 207 206 206 207 209 208 207 208 206 208 211 212 211 213 214 215 217 219 220 223 229 230 215 207 206 206 206 197 194 206 214 219 223 225 224 225 227 227 225 226 232 237 237 236 229 228 228 230 242 247 254 258 257 255 244 239 234 229 225 228 238 246 246 246 249 230 215 226 230 234 256 300 262 273 283 277
258 226 215 210 212 209 206 206 208 208 206 207 211 212 210 209 210 203 208 211 210 210 212 212 214 216 217 217 221 227 230 216 205 205 205 202 185 199 202 211 219 224 229 226 225 226 226 224 225 233 237 239 236 224 224 220 231 236 241 249 254 261 264 262 239 235 238 238 239 244 250 256 259 257 249 238 233 189 148 229 258 212 219 260 266
249 249 247 232 222 216 213 211 210 208 206 210 211 212 211 211 210 203 209 210 214 214 211 213 212 212 213 216 217 222 228 218 203 204 203 194 186 195 200 205 218 222 230 231 228 226 224 220 220 228 235 240 238 225 217 203 222 232 237 245 255 259 263 259 257 248 238 243 249 250 254 259 258 257 255 249 228 187 183 225 231 171 231 229 257
286 262 248 236 235 236 229 222 218 212 210 212 210 209 207 207 205 204 210 212 217 214 214 217 216 214 215 217 216 218 226 222 205 203 200 192 189 200 197 203 216 224 226 234 231 228 227 224 225 226 231 238 241 235 216 193 217 225 229 236 247 253 254 258 247 259 255 253 258 252 260 252 247 243 246 243 218 200 209 228 236 213 241 242 243
344 331 312 258 226 221 224 227 223 218 216 213 209 209 205 204 204 205 207 210 213 213 214 214 217 218 215 215 217 216 222 224 209 202 198 192 190 194 198 198 216 223 224 227 235 231 226 227 226 228 231 236 240 239 229 198 212 227 220 226 241 251 254 252 243 234 247 238 250 243 246 252 248 237 240 241 219 201 213 223 226 219 230 242 238
334 326 318 316 290 239 226 221 223 223 221 216 210 207 203 206 205 205 206 208 210 212 214 213 216 219 216 216 218 216 218 221 216 198 199 191 193 192 199 205 213 218 220 224 229 231 227 224 228 222 222 229 235 239 238 220 215 228 222 222 228 242 255 241 245 236 237 241 245 250 252 255 252 247 242 236 229 216 216 222 221 215 215 228 237
328 324 317 306 299 287 247 230 222 219 218 218 217 216 211 207 206 207 207 206 210 213 214 214 216 218 218 217 218 220 216 213 218 202 197 194 192 194 199 210 208 212 219 228 228 229 228 223 226 223 219 224 231 235 235 234 224 221 235 229 235 241 246 241 246 243 241 240 242 246 250 250 248 242 238 233 231 227 221 219 218 218 215 216 217
324 321 311 302 295 286 276 245 228 221 216 212 214 219 211 208 209 206 205 207 210 213 214 214 215 217 218 218 218 217 217 214 213 210 199 195 193 195 204 208 205 207 214 226 226 227 223 226 229 226 221 222 225 226 227 229 226 225 234 237 236 241 247 257 250 249 244 240 238 242 240 238 239 239 234 234 232 225 223 221 218 213 218 223 225
319 316 307 300 294 291 281 264 236 222 219 215 214 215 210 208 208 206 205 206 208 212 215 212 213 216 218 220 218 217 214 217 211 211 202 197 196 197 205 213 205 206 211 225 228 225 223 224 227 225 221 219 220 221 221 218 217 226 230 238 241 238 228 235 239 237 240 242 241 244 244 237 235 239 233 228 225 217 220 224 229 221 220 231 232
321 311 308 298 289 288 283 267 246 226 222 216 215 214 212 206 207 206 203 206 208 212 213 208 210 214 216 218 218 215 212 214 218 209 206 196 198 200 205 209 214 209 212 225 229 226 224 223 223 224 223 219 220 222 227 227 227 231 226 226 228 222 219 223 232 229 234 238 240 244 248 241 232 234 234 232 230 141 197 217 187 197 218 230 242
308 308 304 298 290 290 286 276 254 233 222 219 215 209 207 203 205 203 201 205 208 211 210 207 210 212 215 218 216 213 209 212 218 209 201 203 203 206 205 208 212 212 214 221 220 223 224 224 224 229 231 227 212 208 215 221 223 225 230 231 221 218 214 215 219 216 229 235 237 240 244 246 240 240 244 199 190 221 209 191 169 207 170 156 128
298 298 294 297 295 288 282 273 261 241 225 220 217 212 205 203 204 204 201 205 209 212 210 205 210 211 216 217 213 209 209 214 214 212 188 195 204 208 212 222 224 223 229 243 248 248 242 230 220 212 211 208 209 215 218 225 219 216 217 215 213 214 212 208 211 213 223 230 236 239 244 249 254 191 217 202 220 227 199 200 195 214 191 191 173
301 302 299 298 292 293 290 283 271 247 230 217 213 211 204 202 203 203 201 203 206 209 206 206 208 210 215 212 208 209 215 216 212 209 200 193 200 191 197 202 200 201 213 222 224 231 233 213 177 176 193 207 215 222 227 222 218 209 208 205 210 214 218 215 223 227 235 231 237 244 252 238 237 239 233 222 226 222 185 195 200 206 187 156 156
305 298 295 290 283 278 283 289 282 256 232 221 215 208 201 200 205 208 208 203 202 201 202 207 207 210 210 206 202 211 217 219 219 204 199 191 189 190 190 202 201 206 213 209 210 211 208 215 226 216 210 218 218 220 222 219 219 213 212 206 208 205 204 195 211 220 224 215 225 229 238 219 236 224 195 215 232 232 190 198 208 195 181 183 204
303 299 297 291 286 285 280 284 286 275 247 228 219 221 217 207 202 203 207 208 208 208 198 203 206 206 210 209 202 206 211 217 206 183 195 192 191 191 197 196 197 201 208 197 187 187 195 210 216 218 222 220 226 226 224 217 215 209 214 210 203 201 205 209 213 223 212 210 219 222 232 228 229 215 210 221 226 211 192 188 194 179 172 198 213
296 294 292 285 283 285 286 285 289 280 260 239 224 219 215 220 26 16 5 327 228 220 214 217 217 211 204 212 214 220 225 220 179 185 194 192 191 196 200 203 200 206 180 125 166 196 206 211 219 219 223 223 226 229 225 216 212 209 211 203 202 203 204 204 212 210 206 211 217 225 230 224 234 223 218 220 219 209 181 191 182 178 198 200 212
291 290 289 287 285 281 277 282 284 286 272 242 227 216 209 187 158 19 30 124 187 205 213 225 231 217 209 209 210 223 224 213 186 186 189 190 193 197 200 201 202 196 186 174 182 202 208 216 221 223 219 223 227 228 223 213 210 209 207 197 205 202 198 208 209 197 203 208 219 223 222 223 227 227 220 216 203 199 189 185 191 199 208 210 213
289 289 292 289 287 284 280 277 279 279 287 269 232 210 200 198 184 197 310 14 158 173 184 195 204 210 208 209 209 208 204 195 192 189 189 192 193 198 200 199 199 182 139 167 206 210 210 214 222 225 221 225 227 224 221 213 212 211 206 205 205 201 203 216 195 195 203 211 210 219 217 218 218 219 212 198 190 209 198 201 199 202 204 207 215
286 285 282 285 281 274 271 265 269 272 251 249 295 236 198 187 188 185 175 167 10 319 231 205 203 205 216 217 217 222 213 187 190 192 193 195 194 198 191 183 152 165 180 197 198 214 211 213 221 224 227 228 228 223 222 238 13 6 327 297 275 250 226 202 184 207 211 212 213 223 216 217 207 208 208 201 205 209 204 209 194 197 210 211 206
295 307 314 314 306 301 287 274 262 261 251 182 137 161 194 184 175 177 184 189 190 194 206 232 223 199 211 221 229 226 218 210 194 197 194 196 188 154 121 117 134 161 248 241 216 215 214 215 219 222 223 227 216 124 81 89 192 215 211 222 247 254 246 202 203 203 211 212 216 219 218 215 211 204 199 195 195 207 212 202 200 205 210 210 204
303 307 314 319 316 308 299 289 267 252 258 232 193 176 172 180 184 190 194 197 197 201 217 214 187 167 15 307 241 213 214 208 199 196 203 181 150 141 159 188 192 201 204 207 211 214 214 218 219 223 221 213 134 137 171 195 208 208 216 235 242 244 239 220 209 207 209 210 214 218 217 219 210 195 189 198 203 209 206 203 203 214 213 201 187
301 308 323 323 318 310 300 283 264 262 271 251 209 188 193 196 200 197 198 199 200 202 205 19 24 282 344 259 132 170 224 232 229 206 174 166 170 171 197 190 201 196 200 206 207 216 218 227 222 227 209 156 158 173 178 171 159 168 214 233 251 250 241 223 213 203 205 210 216 216 216 218 201 192 191 204 207 205 206 198 208 223 226 208 176
294 304 319 322 321 317 309 293 258 238 247 246 226 207 208 205 204 202 199 202 201 189 176 167 182 217 227 227 126 142 86 83 86 74 80 96 151 217 222 222 209 202 204 205 202 208 220 228 225 207 147 151 161 176 177 189 195 199 208 222 230 234 233 225 216 206 206 211 217 216 212 214 201 193 191 201 196 196 190 177 179 218 220 192 174
300 306 313 337 341 330 312 300 256 231 232 232 238 234 213 210 218 216 209 198 187 198 209 213 211 206 203 151 134 129 122 146 180 192 171 179 186 205 224 227 206 203 188 177 178 191 216 222 203 174 171 168 180 192 165 193 208 201 211 215 216 217 214 209 208 207 207 215 221 217 208 209 190 179 177 188 153 134 178 193 201 205 198 194 193
312 320 326 346 2 346 333 337 325 263 231 224 229 220 230 226 221 214 213 209 209 214 213 223 235 237 159 134 150 154 174 184 186 167 164 157 150 133 129 145 91 98 125 143 162 174 178 148 75 78 89 146 146 119 138 190 218 242 242 232 222 213 210 199 196 194 208 212 218 217 202 187 138 116 130 158 141 166 183 191 189 187 183 179 187
306 325 342 347 3 351 2 360 354 344 324 278 245 234 224 218 209 199 204 212 214 217 217 208 204 178 152 174 168 159 176 182 152 135 125 118 95 78 72 69 66 72 62 65 58 58 60 64 51 74 68 79 87 122 136 126 151 177 194 190 183 181 166 130 122 144 131 115 110 93 94 97 98 119 119 105 118 123 130 134 134 144 157 165 164
318 332 355 358 2 11 10 12 4 354 352 349 336 294 259 227 208 198 200 205 215 206 145 127 163 88 87 137 163 167 136 110 106 102 91 85 78 78 77 73 62 65 69 66 66 78 74 65 52 36 25 14 27 43 68 115 133 139 134 127 116 104 90 77 76 83 88 92 83 96 101 101 103 103 114 123 122 123 117 116 118 126 131 143 136
335 4 5 12 15 12 4 4 22 16 6 2 357 353 346 346 293 245 228 228 219 200 185 180 106 97 74 82 95 92 89 97 99 95 96 85 83 80 74 71 67 67 74 78 76 76 74 66 61 50 42 28 14 9 8 3 24 76 98 94 86 84 85 84 76 83 96 98 93 86 89 96 99 101 107 107 110 108 122 129 137 144 147 150 154
358 20 21 24 23 24 19 10 25 37 29 16 14 11 5 7 18 15 31 41 35 58 101 103 111 103 100 91 87 91 97 94 96 97 102 102 93 85 80 75 72 64 56 54 55 65 73 73 69 65 62 49 34 32 31 20 15 24 43 69 78 75 76 75 93 108 113 102 96 91 95 98 99 100 97 103 114 115 107 106 102 116 138 151 155
9 30 34 27 27 29 24 18 22 22 44 40 30 25 21 22 26 29 26 37 45 51 51 43 43 48 56 73 84 91 94 99 100 101 95 97 95 90 86 85 81 80 74 64 54 52 59 64 66 61 58 48 40 37 33 25 27 31 26 39 51 55 44 46 18 54 94 103 106 106 96 90 86 84 86 85 92 103 96 92 103 103 83 69 78
21 34 41 34 30 30 30 26 24 19 22 46 54 45 36 31 30 33 35 31 28 36 39 51 68 81 87 81 76 71 71 84 89 94 94 95 99 96 94 91 90 86 85 84 75 60 52 50 55 58 56 52 47 46 41 38 34 30 30 40 41 29 3 356 9 46 63 82 98 99 95 84 75 81 90 91 84 83 90 84 82 80 95 94 90
23 45 47 43 36 35 33 31 32 28 24 24 42 55 60 54 45 38 39 46 40 24 31 31 49 78 87 92 92 88 85 74 80 85 83 83 85 92 97 99 94 86 79 78 76 75 63 51 47 51 52 48 39 41 40 37 41 37 38 40 36 31 19 11 25 35 41 42 63 84 79 82 75 70 71 74 75 76 78 72 75 81 77 77 80
33 47 54 53 47 43 38 34 35 36 34 32 32 36 46 47 57 58 54 46 43 32 19 23 19 22 73 79 80 84 84 79 74 78 84 83 76 76 80 83 82 83 79 75 71 69 63 55 44 38 40 38 40 33 31 32 34 25 22 36 33 33 30 29 41 38 33 37 41 53 65 70 63 60 56 62 62 64 70 67 64 63 67 70 67
42 48 53 54 55 48 45 41 38 32 34 36 41 43 44 51 48 44 38 49 63 60 38 18 28 12 28 71 82 84 84 83 76 68 70 72 73 74 75 75 76 75 72 68 62 57 56 54 54 52 47 43 42 35 32 31 35 25 25 25 25 36 42 43 45 40 41 46 49 51 55 55 56 51 49 52 55 57 64 59 60 64 62 60 62
49 50 51 52 56 54 49 45 40 38 36 38 44 48 51 51 49 49 50 43 34 45 71 56 26 359 44 70 62 75 83 81 76 66 65 62 55 55 69 78 76 72 71 67 62 53 47 39 37 39 43 44 44 43 39 37 31 32 11 28 39 41 40 44 44 41 45 51 51 57 59 62 59 56 49 48 48 53 53 48 48 50 56 56 51
53 52 50 50 56 58 55 52 47 42 39 39 46 51 51 55 57 55 50 51 48 39 38 49 45 314 55 73 69 63 78 83 81 77 74 77 80 78 73 66 61 61 57 58 54 45 41 44 45 43 38 37 34 38 39 38 24 26 37 42 44 44 44 46 48 44 49 55 60 58 63 62 64 60 52 44 43 48 51 52 47 46 41 42 36